Location: Strawberry
(45.6646°N, 111.9596°W)
Time: 20:41:52
(UTC+00:00)

Vanguard 1 Rocket - Pass Details

Date: 10 October 2022
Orbit: 650 x 4225 km, 34.3° (Epoch: 01 December)

Event Time Altitude Azimuth Distance (km) Brightness Sun altitude
Rises 01:23:38 0° 236° (SW) 8,440 13.5 -6.2°
Reaches altitude 10° 01:29:50 10° 232° (SW) 7,418 12.9 -7.3°
Maximum altitude 01:53:20 51° 166° (SSE) 3,935 10.5 -11.4°
Enters shadow 02:06:20 16° 100° (E) 4,587 10.3 -13.7°
Drops below altitude 10° 02:08:00 10° 96° (E) 4,878 - -14.0°
Sets 02:11:04 0° 91° (E) 5,502 - -14.5°
